When you browse on this site, cookies collect data to enhance your experience and personalize the content and advertising you see.
Visit our Privacy Policy to learn more. By continuing to use the site, you agree to this use of cookies and data.
  • In Slovakia
  • List of Countries
  • For 7 days
  • Water Temperature
  • Satellite Maps
  • Weather Map
  • Weather Widgets
  • user-avatar
    Login

    Hourly Weather Sworawa

    Today, 10 December, Monday

    Time Temperature Precipitation Wind Pressure Humidity
    00:00 +4°C° 0.3 mm 6 mps 737 mmHg 82%
    01:00 +4°C° 0 mm 6 mps 737 mmHg 83%
    02:00 +4°C° 0.4 mm 7 mps 737 mmHg 81%
    03:00 +3°C° 0.4 mm 7 mps 737 mmHg 80%
    04:00 +2°C° 0.4 mm 8 mps 737 mmHg 78%
    05:00 +2°C° 0.4 mm 8 mps 738 mmHg 77%
    06:00 +2°C° 0.4 mm 8 mps 739 mmHg 76%
    07:00 +2°C° 0.4 mm 8 mps 739 mmHg 75%
    08:00 +2°C° 0.1 mm 8 mps 740 mmHg 73%
    09:00 +2°C° 0.1 mm 8 mps 741 mmHg 72%
    10:00 +1°C° 0.1 mm 8 mps 741 mmHg 71%
    11:00 +2°C° 0.1 mm 8 mps 742 mmHg 70%
    12:00 +2°C° 0.1 mm 8 mps 742 mmHg 68%
    13:00 +2°C° 0.1 mm 8 mps 742 mmHg 67%
    14:00 +2°C° 0.1 mm 7 mps 743 mmHg 68%
    15:00 +2°C° 0.1 mm 6 mps 743 mmHg 69%
    16:00 +2°C° 0.1 mm 5 mps 744 mmHg 71%
    17:00 +1°C° 0 mm 5 mps 744 mmHg 72%
    18:00 +1°C° 0 mm 5 mps 744 mmHg 73%
    19:00 +1°C° 0 mm 5 mps 744 mmHg 75%
    20:00 0°C° 0 mm 5 mps 744 mmHg 76%
    21:00 0°C° 0 mm 5 mps 744 mmHg 78%
    22:00 0°C° 0 mm 5 mps 744 mmHg 79%
    23:00 0°C° 0 mm 5 mps 744 mmHg 81%

    Tomorrow, 11 December, Tuesday

    Time Temperature Precipitation Wind Pressure Humidity
    00:00 -1°C° 0 mm 5 mps 744 mmHg 83%
    01:00 -1°C° 0 mm 5 mps 744 mmHg 85%
    02:00 -1°C° 0 mm 4 mps 744 mmHg 86%
    03:00 -1°C° 0 mm 4 mps 744 mmHg 87%
    04:00 -1°C° 0 mm 4 mps 744 mmHg 88%
    05:00 -1°C° 0.2 mm 4 mps 744 mmHg 88%
    06:00 -1°C° 0.2 mm 4 mps 744 mmHg 88%
    07:00 0°C° 0.2 mm 4 mps 744 mmHg 88%
    08:00 0°C° 0.2 mm 4 mps 744 mmHg 88%
    09:00 0°C° 0.2 mm 4 mps 744 mmHg 88%
    10:00 0°C° 0.2 mm 4 mps 744 mmHg 88%
    11:00 +2°C° 0.1 mm 3 mps 744 mmHg 87%
    12:00 +2°C° 0.1 mm 3 mps 744 mmHg 87%
    13:00 +3°C° 0.1 mm 2 mps 745 mmHg 87%
    14:00 +3°C° 0.1 mm 2 mps 745 mmHg 88%
    15:00 +2°C° 0.1 mm 2 mps 745 mmHg 90%
    16:00 +3°C° 0.1 mm 1 mps 745 mmHg 92%
    17:00 +3°C° 0.1 mm 1 mps 746 mmHg 92%
    18:00 +3°C° 0.1 mm 1 mps 746 mmHg 93%
    19:00 +3°C° 0.1 mm 1 mps 746 mmHg 93%
    20:00 +2°C° 0 mm 2 mps 747 mmHg 94%
    21:00 +2°C° 0 mm 2 mps 747 mmHg 94%
    22:00 +1°C° 0 mm 2 mps 748 mmHg 94%
    23:00 +1°C° 0.1 mm 2 mps 748 mmHg 94%

    Day after tomorrow, 12 December, Wednesday

    Time Temperature Precipitation Wind Pressure Humidity
    00:00 0°C° 0.1 mm 3 mps 749 mmHg 93%
    01:00 0°C° 0.1 mm 3 mps 749 mmHg 93%
    02:00 0°C° 0 mm 3 mps 749 mmHg 93%
    03:00 0°C° 0 mm 3 mps 749 mmHg 94%
    04:00 -1°C° 0 mm 3 mps 750 mmHg 94%
    05:00 -1°C° 0 mm 3 mps 750 mmHg 94%
    06:00 -1°C° 0 mm 3 mps 751 mmHg 94%
    07:00 -2°C° 0 mm 3 mps 751 mmHg 94%
    08:00 -1°C° 0 mm 3 mps 752 mmHg 92%
    09:00 -1°C° 0 mm 3 mps 752 mmHg 89%
    10:00 -1°C° 0 mm 3 mps 752 mmHg 87%
    11:00 0°C° 0.1 mm 3 mps 753 mmHg 86%
    12:00 0°C° 0.1 mm 3 mps 753 mmHg 85%
    13:00 0°C° 0.1 mm 3 mps 753 mmHg 84%
    14:00 0°C° 0.1 mm 3 mps 753 mmHg 86%
    15:00 -1°C° 0.1 mm 3 mps 753 mmHg 88%
    16:00 -1°C° 0.1 mm 2 mps 753 mmHg 90%
    17:00 -1°C° 0 mm 2 mps 753 mmHg 90%
    18:00 -2°C° 0 mm 2 mps 754 mmHg 90%
    19:00 -2°C° 0 mm 2 mps 754 mmHg 91%
    20:00 -2°C° 0 mm 2 mps 754 mmHg 91%
    21:00 -2°C° 0 mm 2 mps 754 mmHg 91%
    22:00 -2°C° 0 mm 2 mps 754 mmHg 91%
    23:00 -3°C° 0 mm 2 mps 754 mmHg 90%

    13 December, Thursday

    Time Temperature Precipitation Wind Pressure Humidity
    00:00 -1°C° 0 mm 1 mps 754 mmHg 90%
    01:00 -1°C° 0 mm 1 mps 755 mmHg 90%
    02:00 -1°C° 0 mm 1 mps 754 mmHg 90%
    03:00 -1°C° 0 mm 1 mps 754 mmHg 90%
    04:00 -1°C° 0 mm 1 mps 754 mmHg 90%
    05:00 -1°C° 0 mm 1 mps 754 mmHg 91%
    06:00 -3°C° 0 mm 2 mps 754 mmHg 91%
    07:00 -2°C° 0 mm 2 mps 754 mmHg 92%
    08:00 -2°C° 0 mm 2 mps 754 mmHg 91%
    09:00 -2°C° 0 mm 2 mps 754 mmHg 90%
    10:00 -1°C° 0 mm 2 mps 754 mmHg 89%
    11:00 -1°C° 0 mm 2 mps 754 mmHg 87%
    12:00 -1°C° 0 mm 2 mps 754 mmHg 86%
    13:00 +1°C° 0 mm 2 mps 754 mmHg 85%
    14:00 -1°C° 0 mm 2 mps 754 mmHg 85%
    15:00 -1°C° 0 mm 2 mps 753 mmHg 86%
    16:00 -1°C° 0 mm 2 mps 753 mmHg 87%
    17:00 -1°C° 0 mm 2 mps 754 mmHg 87%
    18:00 -1°C° 0 mm 2 mps 754 mmHg 88%
    19:00 +1°C° 0 mm 1 mps 754 mmHg 89%
    20:00 +1°C° 0 mm 1 mps 754 mmHg 89%
    21:00 +1°C° 0 mm 1 mps 754 mmHg 90%
    22:00 0°C° 0 mm 1 mps 755 mmHg 90%
    23:00 0°C° 0 mm 1 mps 755 mmHg 90%

    14 December, Friday

    Time Temperature Precipitation Wind Pressure Humidity
    00:00 0°C° 0 mm 1 mps 755 mmHg 90%
    01:00 0°C° 0 mm 1 mps 755 mmHg 90%
    02:00 0°C° 0 mm 1 mps 755 mmHg 90%
    03:00 0°C° 0 mm 1 mps 755 mmHg 90%
    04:00 0°C° 0 mm 1 mps 755 mmHg 90%
    05:00 0°C° 0 mm 1 mps 756 mmHg 90%
    06:00 0°C° 0 mm 1 mps 756 mmHg 90%
    07:00 0°C° 0 mm 1 mps 756 mmHg 91%
    08:00 0°C° 0 mm 1 mps 757 mmHg 89%
    09:00 0°C° 0 mm 1 mps 757 mmHg 87%
    10:00 +1°C° 0 mm 1 mps 758 mmHg 85%
    11:00 +1°C° 0 mm 1 mps 758 mmHg 84%
    12:00 +1°C° 0 mm 1 mps 758 mmHg 83%
    13:00 +2°C° 0 mm 1 mps 758 mmHg 82%
    14:00 -1°C° 0 mm 2 mps 759 mmHg 84%
    15:00 -1°C° 0 mm 2 mps 759 mmHg 87%
    16:00 -2°C° 0 mm 2 mps 759 mmHg 89%
    17:00 -2°C° 0 mm 2 mps 760 mmHg 89%
    18:00 -2°C° 0 mm 2 mps 760 mmHg 89%
    19:00 -2°C° 0 mm 2 mps 760 mmHg 89%
    20:00 -2°C° 0 mm 2 mps 760 mmHg 88%
    21:00 -1°C° 0 mm 2 mps 761 mmHg 87%
    22:00 -1°C° 0 mm 2 mps 761 mmHg 86%
    23:00 -1°C° 0 mm 2 mps 761 mmHg 85%

    15 December, Saturday

    Time Temperature Precipitation Wind Pressure Humidity
    00:00 -1°C° 0 mm 2 mps 761 mmHg 85%
    01:00 -1°C° 0 mm 2 mps 762 mmHg 84%
    02:00 -1°C° 0 mm 2 mps 762 mmHg 84%
    03:00 -1°C° 0 mm 2 mps 762 mmHg 83%
    04:00 -1°C° 0 mm 2 mps 762 mmHg 83%
    05:00 -1°C° 0 mm 2 mps 762 mmHg 83%
    06:00 -1°C° 0 mm 2 mps 762 mmHg 83%
    07:00 -1°C° 0 mm 2 mps 763 mmHg 83%
    08:00 -1°C° 0 mm 2 mps 763 mmHg 82%
    09:00 -1°C° 0 mm 3 mps 763 mmHg 80%
    10:00 -1°C° 0 mm 3 mps 763 mmHg 79%
    11:00 -1°C° 0 mm 3 mps 763 mmHg 78%
    12:00 0°C° 0 mm 3 mps 763 mmHg 77%
    13:00 0°C° 0 mm 3 mps 763 mmHg 76%
    14:00 -1°C° 0 mm 3 mps 763 mmHg 79%
    15:00 -1°C° 0 mm 3 mps 764 mmHg 82%
    16:00 -2°C° 0 mm 2 mps 764 mmHg 85%
    17:00 -2°C° 0 mm 3 mps 764 mmHg 86%
    18:00 -2°C° 0 mm 3 mps 764 mmHg 86%
    19:00 -2°C° 0 mm 3 mps 764 mmHg 87%
    20:00 -4°C° 0 mm 3 mps 765 mmHg 87%
    21:00 -4°C° 0 mm 3 mps 765 mmHg 87%
    22:00 -4°C° 0 mm 3 mps 765 mmHg 87%
    23:00 -4°C° 0 mm 3 mps 765 mmHg 86%
    Show more